This demonstration page uses our WeatherBlox Daily Observations layout. Learn more.

Hourly Observations for July 8, 2018

Temp ( °F °C ) Dew Point ( °F °C ) Humidity (%) Winds ( mph kmh ) Pressure ( in mb ) Visibility ( mi km ) Precip ( " mm )
12:15 am 00:15 Clear 72 22.3 67 19.2 83 83 SSE 7 11 30.03 1017 10 16.0934 0 0
12:35 am 00:35 Clear 71 21.7 67 19.3 86 86 SSE 7 11 30.03 1017 10 16.0934 0 0
12:55 am 00:55 Clear 71 21.5 67 19.3 87 87 SSE 7 11 30.06 1018 10 16.0934 0 0
1:15 am 01:15 Clear 70 21 67 19.2 90 90 SSE 7 11 30.03 1017 10 16.0934 0 0
1:35 am 01:35 Clear 69 20.8 67 19.5 92 92 SSE 7 11 30.03 1017 10 16.0934 0 0
1:55 am 01:55 Clear 69 20.7 67 19.3 92 92 SSE 5 7 30.09 1019 10 16.0934 0 0
2:15 am 02:15 Clear 68 20.2 66 19.1 93 93 SSE 7 11 30.06 1018 10 16.0934 0 0
2:35 am 02:35 Clear 69 20.3 66 19.1 93 93 SSE 9 15 30.06 1018 10 16.0934 0 0
2:55 am 02:55 Clear 68 20.2 66 19 93 93 SSE 7 11 30.06 1018 10 16.0934 0 0
3:15 am 03:15 Clear 68 20.1 66 19 93 93 SSE 8 13 30.06 1018 10 16.0934 0 0
3:35 am 03:35 Clear 68 20 66 18.8 93 93 SSE 8 13 30.06 1018 10 16.0934 0 0
3:55 am 03:55 Clear 68 20.1 65 18.6 91 91 SSE 7 11 30.06 1018 10 16.0934 0 0
4:15 am 04:15 Clear 68 20.1 65 18.5 91 91 S 8 13 30.06 1018 10 16.0934 0 0
4:35 am 04:35 Clear 68 20 65 18.5 91 91 S 7 11 30.06 1018 10 16.0934 0 0
4:55 am 04:55 Clear 67 19.7 65 18.3 92 92 S 7 11 30.06 1018 10 16.0934 0 0
5:15 am 05:15 Clear 67 19.5 65 18.2 92 92 SSE 8 13 30.06 1018 10 16.0934 0 0
5:35 am 05:35 Clear 67 19.3 65 18.1 93 93 S 6 9 30.06 1018 10 16.0934 0 0
5:55 am 05:55 Clear 66 19 64 18 94 94 S 7 11 30.09 1019 10 16.0934 0 0
6:15 am 06:15 Sunny 66 19 64 18 94 94 S 5 7 30.09 1019 10 16.0934 0 0
6:35 am 06:35 Sunny 66 18.7 64 18 96 96 S 6 9 30.09 1019 10 16.0934 0 0
6:55 am 06:55 Sunny 66 18.9 64 18 95 95 S 6 9 30.09 1019 10 16.0934 0 0
7:15 am 07:15 Sunny 67 19.4 65 18.3 93 93 S 7 11 30.09 1019 10 16.0934 0 0
7:35 am 07:35 Sunny 68 20 65 18.6 92 92 S 7 11 30.09 1019 10 16.0934 0 0
7:50 am 07:50 Sunny 69 20.5 66 18.9 91 91 S 6 9 30.09 1019 10 16.0934 0 0
8:15 am 08:15 Sunny 71 21.5 66 19.1 86 86 S 8 13 30.06 1018 10 16.0934 0 0
8:35 am 08:35 Sunny 72 22.4 67 19.2 82 82 SSW 10 17 30.03 1017 10 16.0934 0 0
8:55 am 08:55 Sunny 74 23.5 67 19.4 78 78 S 8 13 30.03 1017 10 16.0934 0 0
9:15 am 09:15 Sunny 76 24.3 67 19.5 75 75 S 9 15 30.06 1018 10 16.0934 0 0
9:35 am 09:35 Sunny 77 25 67 19.3 71 71 SSW 12 19 30.03 1017 10 16.0934 0 0
9:55 am 09:55 Sunny 78 25.4 67 19.6 70 70 S 14 22 30 1016 10 16.0934 0 0
10:15 am 10:15 Sunny 78 25.5 67 19.5 70 70 S 14 22 30 1016 10 16.0934 0 0
10:35 am 10:35 Sunny 79 26.1 67 19.7 68 68 S 14 22 30 1016 10 16.0934 0 0
10:55 am 10:55 Sunny 80 26.9 68 20.2 67 67 S 13 20 30 1016 10 16.0934 0 0
11:15 am 11:15 Sunny 82 27.5 69 20.4 65 65 S 12 19 30 1016 10 16.0934 0 0
11:35 am 11:35 Sunny 82 27.9 69 20.6 65 65 SSW 12 19 30 1016 10 16.0934 0 0
11:55 am 11:55 Sunny 82 27.7 69 20.7 66 66 S 10 17 30 1016 10 16.0934 0 0
12:15 pm 12:15 Sunny 82 28 69 20.7 65 65 S 13 20 30 1016 10 16.0934 0 0
12:35 pm 12:35 Sunny 83 28.4 70 20.9 64 64 S 10 17 29.97 1015 10 16.0934 0 0
12:55 pm 12:55 Sunny 83 28.6 70 21.1 64 64 S 10 17 29.97 1015 10 16.0934 0 0
1:15 pm 13:15 Sunny 85 29.5 69 20.6 59 59 SSE 10 17 29.97 1015 10 16.0934 0 0
1:35 pm 13:35 Sunny 85 29.5 69 20.6 59 59 S 14 22 29.97 1015 10 16.0934 0 0
1:55 pm 13:55 Sunny 85 29.7 69 20.5 58 58 S 14 22 29.97 1015 10 16.0934 0 0
2:15 pm 14:15 Sunny 86 30.1 69 20.6 57 57 SSE 15 24 29.97 1015 10 16.0934 0 0
2:35 pm 14:35 Sunny 87 30.3 67 19.2 51 51 SSE 14 22 29.97 1015 10 16.0934 0 0
2:55 pm 14:55 Sunny 87 30.5 67 19.4 52 52 S 15 24 29.97 1015 10 16.0934 0 0
3:15 pm 15:15 Sunny 88 30.9 67 19.4 50 50 S 10 17 29.97 1015 10 16.0934 0 0
3:35 pm 15:35 Sunny 87 30.8 67 19.3 50 50 S 14 22 29.97 1015 10 16.0934 0 0
3:55 pm 15:55 Sunny 87 30.8 65 18.6 48 48 S 12 19 29.97 1015 10 16.0934 0 0
4:15 pm 16:15 Sunny 88 31.3 65 18.6 47 47 S 13 20 29.97 1015 10 16.0934 0 0
4:35 pm 16:35 Sunny 88 31.3 67 19.4 49 49 S 13 20 29.97 1015 10 16.0934 0 0
4:55 pm 16:55 Sunny 89 31.5 66 19.1 48 48 S 12 19 29.97 1015 10 16.0934 0 0
5:15 pm 17:15 Sunny 88 31.1 67 19.7 51 51 S 9 15 29.97 1015 10 16.0934 0 0
5:35 pm 17:35 Sunny 88 31.1 66 18.9 48 48 S 9 15 29.97 1015 10 16.0934 0 0
5:55 pm 17:55 Sunny 88 31 67 19.5 50 50 SSE 10 17 29.97 1015 10 16.0934 0 0
6:15 pm 18:15 Sunny 87 30.6 67 19.7 52 52 SSE 9 15 29.97 1015 10 16.0934 0 0
6:35 pm 18:35 Sunny 87 30.3 66 18.9 50 50 S 9 15 29.97 1015 10 16.0934 0 0
6:55 pm 18:55 Sunny 86 30.2 66 18.8 50 50 S 7 11 29.97 1015 10 16.0934 0 0
7:15 pm 19:15 Sunny 86 30.2 65 18.2 49 49 S 8 13 29.97 1015 10 16.0934 0 0
7:35 pm 19:35 Sunny 85 29.6 67 19.3 54 54 S 6 9 29.97 1015 10 16.0934 0 0
7:55 pm 19:55 Sunny 84 28.7 67 19.7 58 58 S 7 11 29.97 1015 10 16.0934 0 0
8:15 pm 20:15 Sunny 82 28 67 19.7 61 61 S 7 11 30 1016 10 16.0934 0 0
8:35 pm 20:35 Sunny 80 26.9 67 19.7 65 65 S 5 7 30 1016 10 16.0934 0 0
8:55 pm 20:55 Sunny 78 25.7 67 19.6 69 69 S 5 7 30 1016 10 16.0934 0 0
9:15 pm 21:15 Clear 77 25 67 19.2 70 70 S 5 7 30 1016 10 16.0934 0 0
9:35 pm 21:35 Clear 75 23.8 66 19.1 75 75 SSE 6 9 30.03 1017 10 16.0934 0 0
9:55 pm 21:55 Clear 73 22.5 66 18.7 79 79 SSE 6 9 30.03 1017 10 16.0934 0 0
10:15 pm 22:15 Clear 73 22.5 64 17.8 75 75 SSE 8 13 30.03 1017 10 16.0934 0 0
10:35 pm 22:35 Clear 73 22.7 63 17.1 71 71 SSE 8 13 30.03 1017 10 16.0934 0 0
10:55 pm 22:55 Clear 72 22.4 63 17 72 72 S 8 13 30.03 1017 10 16.0934 0 0
11:15 pm 23:15 Clear 71 21.8 62 16.8 73 73 S 6 9 30.03 1017 10 16.0934 0 0
11:35 pm 23:35 Clear 71 21.9 62 16.7 72 72 S 7 11 30.03 1017 10 16.0934 0 0
11:55 pm 23:55 Clear 70 21.2 62 16.7 76 76 S 6 9 30.03 1017 10 16.0934 0 0

Powered by AerisWeather